Flag for Yemen Weather past 2 weeks in Al Hudaydah, Yemen

Now
79 °F

Low level haze.


Feels Like: 81 °F
Forecast: 75 / 84 °F
Wind: 17 mph from South

Location: Hodeidah

Current Time: Jan 30, 2015 at 7:10:25 PM

Latest Report: Jan 30, 2015 at 6:00 PM


Visibility: 3 mi

Pressure: 29.95 "Hg

Humidity: 74%

Dew point: 70 °F

Location of Al HudaydahLocation

Historic Weather in Al Hudaydah — Graph

°F

Al Hudaydah temperature yesterday

Maximum temperature yesterday: 84 °F (at 2:00 PM)
Minimum temperature yesterday: 68 °F (at 7:00 AM)
Average temperature yesterday: 78 °F

Past Weeks' High & Low Weather Summary

 TemperatureHumidityPressure
High84 °F (Jan 17, 3:00 PM)100% (Jan 18, 7:00 AM)30.09 "Hg (Jan 18, 7:00 AM)
Low68 °F (Jan 25, 6:00 AM)55% (Jan 25, 1:00 PM)29.86 "Hg (Jan 24, 4:00 PM)
Average78 °F77%29.97 "Hg
* Reported Jan 15 6:00 PM — Jan 30 6:00 PM, Al Hudaydah, Weather by CustomWeather, © 2014

Note: Actual official high and low records may vary slightly from our data, if they occured in-between our weather recording intervals... More about our weather records

Advertising

Al Hudaydah weather history for previous 24 hours

 ConditionsComfort  
Time TempWeatherWind HumidityBarometerVisibility
6:00 PM
Jan 30
79 °FLow level haze.17 mph74%29.95 "Hg3 mi
5:00 PM81 °FLow level haze.22 mph70%29.92 "Hg2 mi
4:00 PM82 °FLow level haze.21 mph66%29.92 "Hg2 mi
3:00 PM82 °FLow level haze.24 mph66%29.95 "Hg2 mi
2:00 PM84 °FLow level haze.22 mph66%29.95 "Hg2 mi
1:00 PM82 °FClear.22 mph70%29.98 "Hg4 mi
12:00 PM82 °FPassing clouds.20 mph62%30.01 "HgN/A
11:00 AM82 °FPassing clouds.18 mph66%30.01 "HgN/A
10:00 AM79 °FPassing clouds.13 mph74%30.04 "HgN/A
9:00 AM77 °FPassing clouds.7 mph74%30.01 "Hg4 mi
8:00 AM72 °FHaze.5 mph83%29.98 "Hg3 mi
7:00 AM68 °FHaze.3 mph88%29.95 "Hg3 mi
6:00 AM70 °FHaze.5 mph83%29.92 "Hg3 mi
5:00 AM70 °FHaze.5 mph88%29.92 "Hg3 mi
4:00 AM73 °FClear.8 mph83%29.92 "Hg4 mi
3:00 AM73 °FClear.9 mph83%29.92 "Hg4 mi
2:00 AM75 °FClear.10 mph83%29.92 "Hg4 mi
1:00 AM75 °FClear.14 mph83%29.92 "Hg4 mi
12:00 AM77 °FClear.13 mph83%29.92 "Hg4 mi
11:00 PM
Jan 29
77 °FClear.17 mph83%29.95 "Hg4 mi
10:00 PM77 °FClear.14 mph79%29.95 "Hg4 mi
9:00 PM77 °FHaze.15 mph79%29.95 "Hg3 mi
8:00 PM79 °FLow level haze.16 mph70%29.92 "Hg3 mi
7:00 PM79 °FLow level haze.18 mph70%29.89 "Hg3 mi
Weather by CustomWeather, © 2014

See weather overviewHow to use our weather pages